Weather History for Beaver Island, MI

Change the Weather History Date:

Monday, December 23, 2013

  Actual Average Record
Temperature  
Mean Temperature 4 °F -  
Max Temperature 13 °F 31 °F 52 °F (1957)
Min Temperature -5 °F 20 °F -5 °F (2013)
Degree Days  
Heating Degree Days 61    
Moisture  
Dew Point 4 °F    
Average Humidity 82    
Maximum Humidity 89    
Minimum Humidity 70    
Precipitation  
Precipitation 0.00 in - - ()
Sea Level Pressure  
Sea Level Pressure 30.22 in    
Wind  
Wind Speed 3 mph (NNE)    
Max Wind Speed 8 mph    
Max Gust Speed -    
Visibility 8 miles    
Events Snow    
Averages and records for this station are not official NWS values.
T = Trace of Precipitation, MM = Missing Value Source: NWS Daily Summary

Daily Weather History Graph

Daily Weather History Graph

Search for Another Location

Airport:

Trip Planner

Search our weather history database for the weather conditions in past years. The results will help you decide how hot, cold, wet, or windy it might be!

Date:

Astronomy

Dec. 23, 2013 Rise Set
Actual Time 8:21 AM EST 5:02 PM EST
Civil Twilight 7:46 AM EST 5:36 PM EST
Nautical Twilight 7:08 AM EST 6:14 PM EST
Astronomical Twilight 6:32 AM EST 6:50 PM EST
Moon 11:29 PM EST (12/23) 11:29 AM EST (12/23)
Length of Visible Light 9h 49m
Length of Day
8h 40m
Waning Gibbous, 68% of the Moon is Illuminated
Dec 23
Waning Gibbous
Dec 25
Last Quarter
Jan 1
New
Jan 7
First Quarter
Jan 15
Full

Hourly Weather History & Observations

Time (EST) Temp. Windchill Dew Point Humidity Pressure Visibility Wind Dir Wind Speed Gust Speed Precip Events Conditions
12:15 AM 12.9 °F 1.6 °F 9.3 °F 86% 30.06 in 4.0 mi NE 8.1 mph - N/A Snow Light Snow
12:35 AM 12.6 °F 2.2 °F 9.0 °F 85% 30.06 in 5.0 mi NNE 6.9 mph - N/A Snow Light Snow
12:55 AM 12.2 °F 2.9 °F 8.4 °F 85% 30.07 in 3.0 mi NE 5.8 mph - N/A Snow Light Snow
1:15 AM 12.0 °F 2.7 °F 8.1 °F 84% 30.08 in 4.0 mi NE 5.8 mph - N/A Snow Light Snow
1:35 AM 11.8 °F 2.5 °F 8.2 °F 85% 30.08 in 4.0 mi NNE 5.8 mph - N/A Snow Light Snow
1:55 AM 11.8 °F 2.5 °F 8.2 °F 85% 30.08 in 4.0 mi NE 5.8 mph - N/A Snow Light Snow
2:15 AM 11.7 °F 3.7 °F 8.1 °F 85% 30.09 in 7.0 mi NE 4.6 mph - N/A Snow Light Snow
2:35 AM 11.7 °F 3.7 °F 8.1 °F 85% 30.09 in 4.0 mi NE 4.6 mph - N/A Snow Light Snow
2:55 AM 11.7 °F 5.5 °F 8.1 °F 85% 30.10 in 4.0 mi NNE 3.5 mph - N/A Snow Light Snow
3:15 AM 11.7 °F 5.5 °F 8.1 °F 85% 30.11 in 4.0 mi NE 3.5 mph - N/A Snow Light Snow
3:35 AM 11.3 °F 5.1 °F 8.1 °F 87% 30.12 in 4.0 mi NNE 3.5 mph - N/A Snow Light Snow
3:55 AM 11.1 °F - 7.7 °F 86% 30.12 in 3.0 mi Calm Calm - N/A Snow Light Snow
4:14 AM 11.1 °F - 7.7 °F 86% 30.12 in 4.0 mi Calm Calm - N/A Snow Light Snow
4:35 AM 10.4 °F - 7.5 °F 88% 30.12 in 5.0 mi Calm Calm - N/A   Mostly Cloudy
4:55 AM 10.0 °F - 6.8 °F 87% 30.12 in 10.0 mi Calm Calm - N/A Snow Light Snow
5:15 AM 9.5 °F - 6.8 °F 89% 30.13 in 10.0 mi Calm Calm - N/A   Scattered Clouds
5:35 AM 9.3 °F - 6.4 °F 88% 30.13 in 10.0 mi Calm Calm - N/A   Mostly Cloudy
5:55 AM 9.3 °F - 6.3 °F 87% 30.14 in 10.0 mi Calm Calm - N/A   Mostly Cloudy
6:15 AM 9.3 °F - 6.4 °F 88% 30.15 in 4.0 mi Calm Calm - N/A Snow Light Snow
6:35 AM 9.0 °F - 5.9 °F 87% 30.15 in 5.0 mi Calm Calm - N/A Snow Light Snow
6:55 AM 8.6 °F - 5.7 °F 88% 30.15 in 7.0 mi Calm Calm - N/A Snow Light Snow
7:15 AM 7.5 °F - 4.8 °F 89% 30.16 in 10.0 mi Calm Calm - N/A Snow Light Snow
7:35 AM 5.5 °F - 2.5 °F 87% 30.16 in 7.0 mi Calm Calm - N/A Snow Light Snow
7:55 AM 6.8 °F - 4.1 °F 89% 30.18 in 10.0 mi Calm Calm - N/A   Clear
8:15 AM 6.6 °F - 3.7 °F 88% 30.19 in 10.0 mi Calm Calm - N/A   Clear
8:35 AM 6.1 °F - 2.8 °F 87% 30.19 in 10.0 mi Calm Calm - N/A   Clear
8:55 AM 5.0 °F - 2.1 °F 88% 30.20 in 10.0 mi Calm Calm - N/A   Clear
9:15 AM 4.3 °F - 1.6 °F 89% 30.21 in 10.0 mi Calm Calm - N/A   Clear
9:35 AM 4.6 °F - 2.1 °F 89% 30.22 in 10.0 mi Calm Calm - N/A   Clear
9:55 AM 5.5 °F - 2.1 °F 86% 30.22 in 10.0 mi Calm Calm - N/A   Clear
10:14 AM 7.9 °F -0.7 °F 3.2 °F 81% 30.23 in 10.0 mi NNE 4.6 mph - N/A   Clear
10:35 AM 9.1 °F - 3.6 °F 78% 30.23 in 10.0 mi Calm Calm - N/A   Clear
10:55 AM 9.9 °F 1.6 °F 3.6 °F 76% 30.23 in 10.0 mi NNE 4.6 mph - N/A   Clear
11:15 AM 10.4 °F 4.0 °F 3.7 °F 74% 30.24 in 10.0 mi North 3.5 mph - N/A   Clear
11:35 AM 10.8 °F 4.5 °F 4.1 °F 75% 30.24 in 7.0 mi NNW 3.5 mph - N/A Snow Light Snow
11:55 AM 11.5 °F 3.5 °F 4.5 °F 73% 30.24 in 7.0 mi NNW 4.6 mph - N/A Snow Light Snow
12:15 PM 11.7 °F 5.5 °F 4.8 °F 74% 30.23 in 7.0 mi NNE 3.5 mph - N/A Snow Light Snow
12:35 PM 11.7 °F 5.5 °F 4.1 °F 72% 30.23 in 10.0 mi North 3.5 mph - N/A   Scattered Clouds
12:55 PM 12.0 °F 2.7 °F 3.9 °F 70% 30.24 in 10.0 mi North 5.8 mph - N/A   Clear
1:15 PM 12.2 °F 6.1 °F 4.1 °F 70% 30.23 in 10.0 mi North 3.5 mph - N/A   Clear
1:35 PM 12.0 °F 5.9 °F 4.1 °F 71% 30.24 in 10.0 mi NW 3.5 mph - N/A   Clear
1:54 PM 12.7 °F 6.7 °F 5.5 °F 73% 30.23 in 7.0 mi NNW 3.5 mph - N/A Snow Light Snow
2:15 PM 13.1 °F - 5.9 °F 73% 30.24 in 7.0 mi Calm Calm - N/A Snow Light Snow
2:35 PM 12.2 °F 6.1 °F 5.7 °F 75% 30.25 in 10.0 mi North 3.5 mph - N/A   Mostly Cloudy
2:55 PM 12.7 °F 6.7 °F 6.3 °F 75% 30.25 in 10.0 mi North 3.5 mph - N/A   Overcast
3:15 PM 12.9 °F - 6.6 °F 76% 30.25 in 10.0 mi Calm Calm - N/A Snow Light Snow
3:35 PM 13.1 °F - 6.8 °F 76% 30.26 in 7.0 mi Calm Calm - N/A Snow Light Snow
3:55 PM 12.7 °F 6.7 °F 6.8 °F 77% 30.27 in 10.0 mi ENE 3.5 mph - N/A Snow Light Snow
4:15 PM 12.6 °F - 6.8 °F 78% 30.27 in 10.0 mi Calm Calm - N/A Snow Light Snow
4:35 PM 12.9 °F - 7.2 °F 78% 30.28 in 7.0 mi Calm Calm - N/A Snow Light Snow
4:55 PM 12.6 °F - 7.3 °F 80% 30.28 in 7.0 mi Calm Calm - N/A   Overcast
5:15 PM 12.2 °F - 7.3 °F 81% 30.28 in 10.0 mi Calm Calm - N/A   Overcast
5:35 PM 12.4 °F - 7.5 °F 81% 30.29 in 10.0 mi Calm Calm - N/A   Overcast
5:55 PM 12.4 °F 6.3 °F 7.9 °F 82% 30.29 in 10.0 mi NE 3.5 mph - N/A   Overcast
6:15 PM 13.1 °F 5.4 °F 7.7 °F 79% 30.30 in 10.0 mi North 4.6 mph - N/A   Overcast
6:35 PM 12.7 °F 5.0 °F 5.4 °F 72% 30.30 in 10.0 mi North 4.6 mph - N/A   Mostly Cloudy
6:55 PM 12.6 °F 3.4 °F 5.0 °F 72% 30.31 in 10.0 mi NNE 5.8 mph - N/A   Mostly Cloudy
7:15 PM 10.8 °F - 4.6 °F 76% 30.31 in 10.0 mi Calm Calm - N/A   Mostly Cloudy
7:35 PM 10.2 °F - 4.8 °F 79% 30.32 in 10.0 mi Calm Calm - N/A   Mostly Cloudy
7:55 PM 8.2 °F 1.6 °F 4.1 °F 83% 30.32 in 10.0 mi NNE 3.5 mph - N/A   Scattered Clouds
8:15 PM 8.4 °F - 3.9 °F 82% 30.32 in 10.0 mi Calm Calm - N/A   Clear
8:35 PM 3.2 °F - 0.1 °F 87% 30.33 in 10.0 mi Calm Calm - N/A   Clear
8:55 PM 1.2 °F - -1.7 °F 88% 30.33 in 10.0 mi Calm Calm - N/A   Clear
9:15 PM -0.4 °F - -3.5 °F 87% 30.33 in 10.0 mi Calm Calm - N/A   Clear
9:35 PM -0.0 °F - -3.3 °F 86% 30.33 in 10.0 mi Calm Calm - N/A   Clear
9:55 PM -2.2 °F - -5.3 °F 87% 30.33 in 10.0 mi Calm Calm - N/A   Clear
10:15 PM -5.4 °F - -9.0 °F 84% 30.33 in 10.0 mi Calm Calm - N/A   Clear
10:35 PM -2.4 °F - -6.0 °F 85% 30.33 in 10.0 mi Calm Calm - N/A   Scattered Clouds
10:55 PM -3.8 °F -12.2 °F -7.6 °F 84% 30.33 in 10.0 mi NE 3.5 mph - N/A   Clear
11:15 PM -5.8 °F - -9.8 °F 83% 30.33 in 10.0 mi Calm Calm - N/A   Clear
11:35 PM - - - N/A% 30.33 in 10.0 mi NE 4.6 mph - N/A   Clear
11:55 PM -4.4 °F -12.8 °F -8.3 °F 83% 30.33 in 10.0 mi ENE 3.5 mph - N/A   Clear